| time (UTC) | temp C | wind direction | speed KPH | gust KPH | rain 1hr cm | rain 24hr cm | rain mn cm | humidity % | barometer mb |
| 20260504081830 | 11 | 350 | 1.6 | 4.8 | 0.00 | 0.00 | 0.00 | 6 | 983.3 |
| 20260504081330 | 11 | 295 | 1.6 | 3.2 | 0.00 | 0.00 | 0.00 | 6 | 983.4 |
| 20260504080830 | 11 | 301 | 3.2 | 6.4 | 0.00 | 0.00 | 0.00 | 6 | 983.4 |
| 20260504080330 | 11 | 271 | 3.2 | 6.4 | 0.00 | 0.00 | 0.00 | 6 | 983.4 |
| 20260504070329 | 10 | 283 | 1.6 | 4.8 | 0.00 | 0.00 | 0.00 | 6 | 983.4 |
| 20260504050329 | 11 | 143 | 1.6 | 3.2 | 0.00 | 0.00 | 0.00 | 6 | 984.6 |
| 20260504045830 | 11 | 125 | 1.6 | 3.2 | 0.00 | 0.00 | 0.00 | 6 | 984.6 |
| 20260504045330 | 11 | 113 | 0.0 | 3.2 | 0.00 | 0.00 | 0.00 | 6 | 984.7 |
| 20260504044830 | 11 | 317 | 0.0 | 3.2 | 0.00 | 0.00 | 0.00 | 6 | 984.7 |
| 20260504044330 | 11 | 303 | 1.6 | 4.8 | 0.00 | 0.00 | 0.00 | 6 | 984.7 |
| 20260504043830 | 11 | 305 | 1.6 | 3.2 | 0.00 | 0.00 | 0.00 | 6 | 984.7 |
| 20260504043330 | 11 | 294 | 0.0 | 3.2 | 0.00 | 0.00 | 0.00 | 6 | 984.7 |
| 20260504042830 | 12 | 67 | 0.0 | 1.6 | 0.00 | 0.00 | 0.00 | 6 | 984.7 |
| 20260504042330 | 12 | 173 | 1.6 | 3.2 | 0.00 | 0.00 | 0.00 | 6 | 984.7 |
| 20260504041830 | 12 | 150 | 0.0 | 3.2 | 0.00 | 0.00 | 0.00 | 6 | 984.8 |
| 20260504041330 | 12 | 189 | 1.6 | 3.2 | 0.00 | 0.00 | 0.00 | 6 | 984.9 |
| 20260504040830 | 12 | 338 | 1.6 | 3.2 | 0.00 | 0.00 | 0.00 | 6 | 984.9 |
| 20260504040330 | 12 | 136 | 1.6 | 3.2 | 0.00 | 0.00 | 0.00 | 6 | 984.9 |
| 20260504035830 | 12 | 138 | 3.2 | 3.2 | 0.00 | 0.00 | 0.00 | 6 | 984.9 |
| 20260504035330 | 12 | 133 | 1.6 | 3.2 | 0.00 | 0.00 | 0.00 | 6 | 984.9 |
| 20260504034830 | 12 | 133 | 3.2 | 4.8 | 0.00 | 0.00 | 0.00 | 6 | 984.9 |
| 20260504034330 | 12 | 220 | 1.6 | 3.2 | 0.00 | 0.00 | 0.00 | 6 | 985.0 |
| 20260504033830 | 12 | 153 | 1.6 | 3.2 | 0.00 | 0.00 | 0.00 | 6 | 985.1 |
| 20260504033330 | 13 | 330 | 1.6 | 3.2 | 0.00 | 0.00 | 0.00 | 6 | 985.1 |
| 20260504032829 | 13 | 333 | 1.6 | 4.8 | 0.00 | 0.00 | 0.00 | 6 | 985.1 |
| 20260504032329 | 13 | 265 | 3.2 | 4.8 | 0.00 | 0.00 | 0.00 | 6 | 985.1 |
| 20260504031829 | 13 | 296 | 1.6 | 6.4 | 0.00 | 0.00 | 0.00 | 6 | 985.1 |
| 20260504031329 | 13 | 307 | 3.2 | 6.4 | 0.00 | 0.00 | 0.00 | 6 | 985.1 |
| 20260504030829 | 13 | 318 | 3.2 | 6.4 | 0.00 | 0.00 | 0.00 | 6 | 985.1 |
| 20260504030329 | 13 | 304 | 4.8 | 8.0 | 0.00 | 0.00 | 0.00 | 6 | 985.2 |
| 20260504025829 | 13 | 329 | 3.2 | 6.4 | 0.00 | 0.00 | 0.00 | 6 | 985.2 |
| 20260504025329 | 13 | 315 | 1.6 | 3.2 | 0.00 | 0.00 | 0.00 | 6 | 985.2 |
| 20260504024829 | 13 | 315 | 1.6 | 1.6 | 0.00 | 0.00 | 0.00 | 6 | 985.2 |
| 20260504024329 | 13 | 73 | 1.6 | 3.2 | 0.00 | 0.00 | 0.00 | 5 | 985.2 |
| 20260504023829 | 13 | 305 | 1.6 | 3.2 | 0.00 | 0.00 | 0.00 | 5 | 985.1 |
| 20260504023329 | 14 | 294 | 3.2 | 6.4 | 0.00 | 0.00 | 0.00 | 5 | 985.1 |
| 20260504022829 | 14 | 281 | 4.8 | 6.4 | 0.00 | 0.00 | 0.00 | 5 | 985.1 |
| 20260504022329 | 14 | 277 | 4.8 | 8.0 | 0.00 | 0.00 | 0.00 | 5 | 985.1 |
| 20260504021829 | 14 | 274 | 4.8 | 9.7 | 0.00 | 0.00 | 0.00 | 5 | 985.1 |
| 20260504021329 | 15 | 278 | 4.8 | 8.0 | 0.00 | 0.00 | 0.00 | 5 | 985.2 |
| 20260504020829 | 15 | 264 | 6.4 | 9.7 | 0.00 | 0.00 | 0.00 | 5 | 985.1 |
| 20260504020329 | 15 | 277 | 6.4 | 9.7 | 0.00 | 0.00 | 0.00 | 5 | 984.9 |
| 20260504015829 | 15 | 288 | 6.4 | 9.7 | 0.00 | 0.00 | 0.00 | 5 | 984.9 |
| 20260504015329 | 15 | 271 | 6.4 | 11.3 | 0.00 | 0.00 | 0.00 | 5 | 984.8 |
| 20260504014829 | 15 | 306 | 4.8 | 11.3 | 0.00 | 0.00 | 0.00 | 5 | 984.7 |
| 20260504014329 | 15 | 289 | 6.4 | 11.3 | 0.00 | 0.00 | 0.00 | 5 | 984.7 |
| 20260504013829 | 15 | 299 | 4.8 | 8.0 | 0.00 | 0.00 | 0.00 | 5 | 984.7 |
| 20260504013329 | 15 | 140 | 3.2 | 4.8 | 0.00 | 0.00 | 0.00 | 5 | 984.7 |
| 20260504012829 | 15 | 305 | 4.8 | 6.4 | 0.00 | 0.00 | 0.00 | 5 | 984.4 |
| 20260504012329 | 16 | 306 | 4.8 | 8.0 | 0.00 | 0.00 | 0.00 | 5 | 984.4 |
| 20260504011829 | 16 | 310 | 4.8 | 9.7 | 0.00 | 0.00 | 0.00 | 5 | 984.2 |
| 20260504011329 | 16 | 292 | 4.8 | 9.7 | 0.00 | 0.00 | 0.00 | 5 | 984.2 |
| 20260504010829 | 16 | 332 | 3.2 | 6.4 | 0.00 | 0.00 | 0.00 | 5 | 984.3 |
| 20260504010329 | 16 | 209 | 4.8 | 8.0 | 0.00 | 0.00 | 0.00 | 5 | 984.4 |
| 20260504005830 | 16 | 107 | 4.8 | 8.0 | 0.00 | 0.00 | 0.00 | 5 | 984.4 |
| 20260504005330 | 16 | 359 | 4.8 | 9.7 | 0.00 | 0.00 | 0.00 | 5 | 984.4 |
| 20260504004830 | 16 | 64 | 4.8 | 11.3 | 0.00 | 0.00 | 0.00 | 5 | 984.4 |
| 20260504004330 | 17 | 282 | 4.8 | 9.7 | 0.00 | 0.00 | 0.00 | 5 | 984.2 |
| 20260504003830 | 17 | 322 | 6.4 | 12.9 | 0.00 | 0.00 | 0.00 | 5 | 984.2 |
| 20260504003330 | 17 | 354 | 4.8 | 9.7 | 0.00 | 0.00 | 0.00 | 5 | 984.3 |
| 20260504002830 | 17 | 327 | 3.2 | 8.0 | 0.00 | 0.00 | 0.00 | 5 | 984.4 |
| 20260504002330 | 17 | 292 | 4.8 | 9.7 | 0.00 | 0.00 | 0.00 | 4 | 984.4 |
| 20260504001830 | 17 | 285 | 4.8 | 8.0 | 0.00 | 0.00 | 0.00 | 4 | 984.4 |
| 20260504001330 | 17 | 287 | 8.0 | 12.9 | 0.00 | 0.00 | 0.00 | 4 | 984.4 |
| 20260504000830 | 17 | 288 | 8.0 | 12.9 | 0.00 | 0.00 | 0.00 | 4 | 984.4 |
| 20260504000330 | 18 | 278 | 12.9 | 17.7 | 0.00 | 0.00 | 0.00 | 4 | 984.4 |
| 20260503235830 | 18 | 284 | 11.3 | 24.1 | 0.00 | 0.00 | 0.00 | 4 | 984.4 |
| 20260503235330 | 18 | 261 | 11.3 | 17.7 | 0.00 | 0.00 | 0.00 | 4 | 984.4 |
| 20260503234830 | 18 | 259 | 14.5 | 24.1 | 0.00 | 0.00 | 0.00 | 4 | 984.4 |
| 20260503234330 | 18 | 281 | 14.5 | 24.1 | 0.00 | 0.00 | 0.00 | 4 | 984.4 |
| 20260503233830 | 18 | 310 | 11.3 | 17.7 | 0.00 | 0.00 | 0.00 | 4 | 984.4 |
| 20260503233330 | 18 | 258 | 12.9 | 20.9 | 0.00 | 0.00 | 0.00 | 4 | 984.4 |
| 20260503232830 | 18 | 283 | 11.3 | 17.7 | 0.00 | 0.00 | 0.00 | 4 | 984.4 |
| 20260503232329 | 18 | 305 | 12.9 | 24.1 | 0.00 | 0.00 | 0.00 | 4 | 984.4 |
| 20260503231830 | 18 | 277 | 11.3 | 20.9 | 0.00 | 0.00 | 0.00 | 4 | 984.7 |
| 20260503231329 | 18 | 280 | 12.9 | 27.4 | 0.00 | 0.00 | 0.00 | 4 | 984.7 |
| 20260503230829 | 18 | 272 | 14.5 | 24.1 | 0.00 | 0.00 | 0.00 | 4 | 984.7 |
| 20260503230329 | 18 | 269 | 16.1 | 24.1 | 0.00 | 0.00 | 0.00 | 4 | 984.9 |
| 20260503225829 | 18 | 238 | 11.3 | 19.3 | 0.00 | 0.00 | 0.00 | 4 | 984.9 |
| 20260503225329 | 18 | 268 | 14.5 | 20.9 | 0.00 | 0.00 | 0.00 | 4 | 984.9 |
| 20260503224829 | 18 | 284 | 16.1 | 24.1 | 0.00 | 0.00 | 0.00 | 4 | 984.9 |
| 20260503224329 | 18 | 277 | 12.9 | 22.5 | 0.00 | 0.00 | 0.00 | 4 | 984.9 |
| 20260503223829 | 18 | 282 | 14.5 | 22.5 | 0.00 | 0.00 | 0.00 | 4 | 984.9 |
| 20260503223329 | 18 | 274 | 16.1 | 24.1 | 0.00 | 0.00 | 0.00 | 4 | 984.9 |
| 20260503222829 | 18 | 283 | 16.1 | 27.4 | 0.00 | 0.00 | 0.00 | 4 | 984.7 |
| 20260503222329 | 18 | 300 | 17.7 | 30.6 | 0.00 | 0.00 | 0.00 | 4 | 984.7 |
| 20260503221829 | 18 | 273 | 16.1 | 22.5 | 0.00 | 0.00 | 0.00 | 4 | 984.7 |
| 20260503221329 | 18 | 301 | 17.7 | 25.7 | 0.00 | 0.00 | 0.00 | 4 | 984.7 |
| 20260503220829 | 17 | 290 | 14.5 | 24.1 | 0.00 | 0.00 | 0.00 | 4 | 984.7 |
| 20260503220329 | 17 | 242 | 16.1 | 29.0 | 0.00 | 0.00 | 0.00 | 4 | 984.7 |
| 20260503215829 | 17 | 290 | 12.9 | 24.1 | 0.00 | 0.00 | 0.00 | 4 | 984.7 |
| 20260503215329 | 17 | 296 | 17.7 | 24.1 | 0.00 | 0.00 | 0.00 | 4 | 985.1 |
| 20260503214829 | 17 | 282 | 16.1 | 20.9 | 0.00 | 0.00 | 0.00 | 4 | 985.1 |
| 20260503214329 | 17 | 275 | 17.7 | 30.6 | 0.00 | 0.00 | 0.00 | 4 | 985.0 |
| 20260503213829 | 17 | 293 | 17.7 | 29.0 | 0.00 | 0.00 | 0.00 | 4 | 984.9 |
| 20260503213329 | 17 | 320 | 14.5 | 27.4 | 0.00 | 0.00 | 0.00 | 4 | 984.9 |
| 20260503212829 | 17 | 275 | 16.1 | 24.1 | 0.00 | 0.00 | 0.00 | 4 | 985.1 |
| 20260503212329 | 17 | 282 | 16.1 | 27.4 | 0.00 | 0.00 | 0.00 | 4 | 985.1 |
| 20260503211829 | 17 | 257 | 12.9 | 24.1 | 0.00 | 0.00 | 0.00 | 4 | 985.6 |
| 20260503211329 | 17 | 56 | 8.0 | 17.7 | 0.00 | 0.00 | 0.00 | 4 | 985.6 |
| 20260503210829 | 17 | 242 | 9.7 | 20.9 | 0.00 | 0.00 | 0.00 | 4 | 985.7 |
| 20260503210329 | 17 | 303 | 12.9 | 25.7 | 0.00 | 0.00 | 0.00 | 4 | 985.9 |
| 20260503205830 | 17 | 280 | 11.3 | 19.3 | 0.00 | 0.00 | 0.00 | 4 | 985.9 |
| 20260503205330 | 17 | 285 | 16.1 | 25.7 | 0.00 | 0.00 | 0.00 | 4 | 986.2 |
| 20260503204830 | 17 | 322 | 17.7 | 22.5 | 0.00 | 0.00 | 0.00 | 4 | 986.2 |
| 20260503204330 | 17 | 321 | 14.5 | 27.4 | 0.00 | 0.00 | 0.00 | 4 | 986.2 |
| 20260503203830 | 17 | 256 | 20.9 | 33.8 | 0.00 | 0.00 | 0.00 | 4 | 986.2 |
| 20260503203330 | 17 | 307 | 17.7 | 27.4 | 0.00 | 0.00 | 0.00 | 4 | 986.2 |
| 20260503202830 | 17 | 285 | 12.9 | 22.5 | 0.00 | 0.00 | 0.00 | 4 | 986.2 |
| 20260503202330 | 17 | 215 | 17.7 | 32.2 | 0.00 | 0.00 | 0.00 | 4 | 986.2 |
| 20260503201830 | 18 | 358 | 12.9 | 29.0 | 0.00 | 0.00 | 0.00 | 4 | 986.3 |
| 20260503201330 | 17 | 334 | 9.7 | 19.3 | 0.00 | 0.00 | 0.00 | 4 | 986.4 |
| 20260503200830 | 17 | 253 | 11.3 | 22.5 | 0.00 | 0.00 | 0.00 | 4 | 986.6 |
| 20260503200330 | 17 | 248 | 9.7 | 12.9 | 0.00 | 0.00 | 0.00 | 4 | 987.1 |
| 20260503195830 | 17 | 325 | 11.3 | 16.1 | 0.00 | 0.00 | 0.00 | 4 | 987.1 |
| 20260503195330 | 17 | 285 | 12.9 | 27.4 | 0.00 | 0.00 | 0.00 | 4 | 987.2 |
| 20260503194830 | 17 | 290 | 11.3 | 27.4 | 0.00 | 0.00 | 0.00 | 4 | 987.2 |
| 20260503194330 | 18 | 275 | 12.9 | 27.4 | 0.00 | 0.00 | 0.00 | 4 | 987.4 |
| 20260503193830 | 18 | 127 | 11.3 | 20.9 | 0.00 | 0.00 | 0.00 | 4 | 987.7 |
| 20260503193330 | 18 | 290 | 14.5 | 29.0 | 0.00 | 0.00 | 0.00 | 4 | 987.7 |
| 20260503192830 | 18 | 258 | 11.3 | 19.3 | 0.00 | 0.00 | 0.00 | 4 | 987.9 |
| 20260503192330 | 18 | 260 | 11.3 | 17.7 | 0.00 | 0.00 | 0.00 | 4 | 987.9 |
| 20260503191829 | 17 | 272 | 12.9 | 30.6 | 0.00 | 0.00 | 0.00 | 4 | 988.1 |
| 20260503191329 | 17 | 17 | 6.4 | 9.7 | 0.00 | 0.00 | 0.00 | 4 | 988.4 |
| 20260503190829 | 16 | 304 | 12.9 | 29.0 | 0.00 | 0.00 | 0.00 | 4 | 988.4 |
| 20260503190329 | 16 | 245 | 14.5 | 24.1 | 0.00 | 0.00 | 0.00 | 4 | 988.9 |
| 20260503185829 | 16 | 291 | 14.5 | 24.1 | 0.00 | 0.00 | 0.00 | 4 | 988.9 |
| 20260503185329 | 16 | 280 | 16.1 | 25.7 | 0.00 | 0.00 | 0.00 | 4 | 989.4 |
| 20260503184829 | 15 | 271 | 16.1 | 30.6 | 0.00 | 0.00 | 0.00 | 4 | 989.4 |
| 20260503184329 | 15 | 276 | 16.1 | 30.6 | 0.00 | 0.00 | 0.00 | 4 | 989.6 |
| 20260503183829 | 15 | 256 | 14.5 | 25.7 | 0.00 | 0.00 | 0.00 | 4 | 989.7 |
| 20260503183329 | 15 | 260 | 14.5 | 24.1 | 0.00 | 0.00 | 0.00 | 4 | 989.7 |
| 20260503182829 | 15 | 263 | 16.1 | 25.7 | 0.00 | 0.00 | 0.00 | 4 | 989.9 |
| 20260503182329 | 15 | 265 | 17.7 | 27.4 | 0.00 | 0.00 | 0.00 | 4 | 989.9 |
| 20260503181829 | 15 | 271 | 16.1 | 25.7 | 0.00 | 0.00 | 0.00 | 4 | 989.8 |
| 20260503181329 | 16 | 265 | 16.1 | 22.5 | 0.00 | 0.00 | 0.00 | 4 | 989.7 |
| 20260503180829 | 16 | 269 | 17.7 | 29.0 | 0.00 | 0.00 | 0.00 | 4 | 989.7 |
| 20260503180329 | 16 | 292 | 12.9 | 22.5 | 0.00 | 0.00 | 0.00 | 4 | 989.7 |
| 20260503175829 | 16 | 267 | 12.9 | 17.7 | 0.00 | 0.00 | 0.00 | 4 | 989.7 |
| 20260503175329 | 16 | 289 | 16.1 | 29.0 | 0.00 | 0.00 | 0.00 | 4 | 989.9 |
| 20260503174829 | 16 | 268 | 14.5 | 27.4 | 0.00 | 0.00 | 0.00 | 4 | 989.9 |
| 20260503174329 | 17 | 268 | 16.1 | 30.6 | 0.00 | 0.00 | 0.00 | 4 | 990.0 |
| 20260503173829 | 17 | 282 | 17.7 | 25.7 | 0.00 | 0.00 | 0.00 | 4 | 990.1 |
| 20260503173329 | 17 | 283 | 17.7 | 27.4 | 0.00 | 0.00 | 0.00 | 4 | 990.1 |
| 20260503172829 | 17 | 281 | 16.1 | 19.3 | 0.00 | 0.00 | 0.00 | 4 | 990.4 |
| 20260503172329 | 17 | 270 | 17.7 | 25.7 | 0.00 | 0.00 | 0.00 | 4 | 990.4 |
| 20260503171829 | 17 | 294 | 14.5 | 27.4 | 0.00 | 0.00 | 0.00 | 3 | 990.5 |
| 20260503171329 | 18 | 297 | 11.3 | 20.9 | 0.00 | 0.00 | 0.00 | 4 | 990.6 |
| 20260503170829 | 17 | 340 | 14.5 | 27.4 | 0.00 | 0.00 | 0.00 | 4 | 990.6 |
| 20260503170329 | 17 | 298 | 12.9 | 20.9 | 0.00 | 0.00 | 0.00 | 4 | 990.7 |
| 20260503150829 | -17 | 0 | 0.0 | 0.0 | 0.00 | 0.00 | 0.00 | 100 | |
| 20260503150329 | -17 | 0 | 0.0 | 0.0 | 0.00 | 0.00 | 0.00 | 100 | |
| 20260503131329 | 10 | 301 | 6.4 | 11.3 | 0.00 | 0.00 | 0.00 | 6 | 993.4 |
| 20260503130829 | 10 | 284 | 6.4 | 11.3 | 0.00 | 0.00 | 0.00 | 6 | 993.5 |
| 20260503130329 | 10 | 265 | 9.7 | 14.5 | 0.00 | 0.00 | 0.00 | 6 | 993.6 |
| 20260503110329 | 5 | 318 | 3.2 | 4.8 | 0.00 | 0.00 | 0.00 | 6 | 993.1 |
| 20260503090329 | 5 | 282 | 4.8 | 6.4 | 0.00 | 0.00 | 0.00 | 6 | 993.4 |